Panama City, FL

3:56 PM CDT on October 18, 2017 (GMT -0500)
Northwest Florida Beaches International

Weather History for KECP - June, 2013

Change the Weather History Date:

Saturday, June 8, 2013

  Actual Average Record
Temperature  
Mean Temperature 79 °F -  
Max Temperature 90 °F - 94 °F (2016)
Min Temperature 68 °F - 66 °F (2017)
Degree Days  
Heating Degree Days 0    
Cooling Degree Days 14    
Growing Degree Days 28 (Base 50)    
Moisture  
Dew Point 71 °F    
Average Humidity 74    
Maximum Humidity 93    
Minimum Humidity 55    
Precipitation  
Precipitation 0.00 in - 0.33 in (2011)
Month to date precipitation  
Year to date precipitation  
Sea Level Pressure  
Sea Level Pressure 30.00 in    
Wind  
Wind Speed 3 mph (South)    
Max Wind Speed 29 mph    
Max Gust Speed 51 mph    
Visibility 8 miles    
Events      
T = Trace of Precipitation, MM = Missing Value Source: NWS Daily Summary

Daily Weather History Graph

Daily Weather History Graph

Search for Another Location

Airport or City:

Trip Planner

Search our weather history database for the weather conditions in past years. The results will help you decide how hot, cold, wet, or windy it might be!

Date:

Astronomy

Jun. 08, 2013 Rise Set
Actual Time 6:40 AM EDT 8:44 PM EDT
Civil Twilight 6:13 AM EDT 9:11 PM EDT
Nautical Twilight 5:39 AM EDT 9:44 PM EDT
Astronomical Twilight 5:04 AM EDT 10:20 PM EDT
Moon 6:44 AM EDT (6/8) 8:49 PM EDT (6/8)
Length of Visible Light 14h 58m
Length of Day
14h 03m
New Moon, 0% of the Moon is Illuminated
Jun 8
New Moon
Jun 16
First Quarter
Jun 23
Full
Jun 30
Last Quarter
Jul 8
New

Hourly Weather History & Observations

Time (EDT) Temp. Heat Index Dew Point Humidity Pressure Visibility Wind Dir Wind Speed Gust Speed Precip Events Conditions
12:53 AM 73.9 °F - 70.0 °F 87% 29.94 in 10.0 mi Calm Calm - N/A   Clear
1:53 AM 72.0 °F - 69.1 °F 91% 29.94 in 8.0 mi Calm Calm - N/A   Clear
2:53 AM 72.0 °F - 69.1 °F 91% 29.94 in 8.0 mi Calm Calm - N/A   Clear
3:53 AM 69.1 °F - 66.9 °F 93% 29.93 in 6.0 mi Calm Calm - N/A   Clear
4:53 AM 68.0 °F - 66.0 °F 93% 29.94 in 5.0 mi Calm Calm - N/A   Clear
5:53 AM 71.1 °F - 69.1 °F 93% 29.96 in 5.0 mi Calm Calm - N/A   Mostly Cloudy
6:02 AM 71.6 °F - 69.8 °F 94% 29.93 in 6.0 mi Calm Calm - N/A   Mostly Cloudy
6:11 AM 71.6 °F - 69.8 °F 94% 29.93 in 6.0 mi Calm Calm - N/A   Mostly Cloudy
6:49 AM 71.6 °F - 69.8 °F 94% 29.94 in 4.0 mi Calm Calm - N/A   Scattered Clouds
6:53 AM 71.1 °F - 69.1 °F 93% 29.98 in 4.0 mi Calm Calm - N/A   Partly Cloudy
7:53 AM 73.9 °F - 72.0 °F 93% 30.00 in 7.0 mi Calm Calm - N/A   Clear
8:53 AM 80.1 °F 84.2 °F 73.0 °F 79% 30.02 in 10.0 mi Calm Calm - N/A   Clear
9:53 AM 82.0 °F 86.7 °F 72.0 °F 71% 30.03 in 10.0 mi South 8.1 mph - N/A   Mostly Cloudy
10:53 AM 86.0 °F 90.7 °F 70.0 °F 59% 30.03 in 10.0 mi South 11.5 mph 16.1 mph N/A   Partly Cloudy
11:53 AM 86.0 °F 90.7 °F 70.0 °F 59% 30.04 in 10.0 mi South 11.5 mph 17.3 mph N/A   Clear
12:53 PM 87.1 °F 91.3 °F 69.1 °F 55% 30.04 in 10.0 mi South 9.2 mph - N/A   Scattered Clouds
1:53 PM 88.0 °F 93.8 °F 71.1 °F 57% 30.04 in 10.0 mi South 11.5 mph 19.6 mph N/A   Mostly Cloudy
2:53 PM 88.0 °F 92.9 °F 70.0 °F 55% 30.02 in 10.0 mi South 11.5 mph - N/A   Scattered Clouds
3:53 PM 87.1 °F 92.0 °F 70.0 °F 57% 30.02 in 10.0 mi South 9.2 mph - N/A   Scattered Clouds
4:53 PM 87.1 °F 92.0 °F 70.0 °F 57% 30.00 in 10.0 mi SSE 11.5 mph - N/A   Scattered Clouds
5:53 PM 84.0 °F 88.4 °F 70.0 °F 63% 30.00 in 10.0 mi South 11.5 mph - N/A   Partly Cloudy
6:53 PM 82.9 °F 88.0 °F 72.0 °F 69% 30.01 in 10.0 mi South 9.2 mph 25.3 mph N/A   Partly Cloudy
7:53 PM 82.0 °F 87.4 °F 73.0 °F 74% 30.03 in 10.0 mi South 5.8 mph - N/A   Partly Cloudy
8:53 PM 80.1 °F 84.2 °F 73.0 °F 79% 30.04 in 10.0 mi SE 3.5 mph - N/A   Partly Cloudy
9:53 PM 79.0 °F - 73.0 °F 82% 30.06 in 10.0 mi SSE 5.8 mph - N/A   Scattered Clouds
10:53 PM 80.1 °F 84.5 °F 73.9 °F 81% 30.07 in 10.0 mi SSE 9.2 mph - N/A   Partly Cloudy
11:53 PM 80.1 °F 85.1 °F 75.0 °F 85% 30.07 in 10.0 mi SSE 9.2 mph - N/A   Mostly Cloudy